THOR ABLESTAR DEB, 120

Orbit data source: Space-Track

THOR ABLESTAR DEB, 120 is space debris in LEO originally from a launch on Thu, 29 Jun 1961 UTC launched from the Air Force Eastern Test Range (AFETR). Debris objects in space refer to the collection of defunct objects orbiting the Earth. Examples of debris include non-operational satellites, rocket bodies, and fragments generated from explosions, collisions, or faulty payload assembly.

Loading next visibility...
Identifier
120, 1961-015E
Orbit
LEO
Country
Flag of USUS
Related business
Manufacturer
Unknown
Mission
Spacecraft
Bus & Motor
Unknown
Mass
Unknown
Launch date (UTC)
1961-06-29 (64 years ago)
Launch vehicle
Unknown
Launch site
Air Force Eastern Test Range (AFETR)
Object type
Payload
Rocket body
Debris
Shape & HBR
Unknown shape, 0.2 m
Radar Cross Section
Medium (>0.1 m² and <1 m²)

Expand to show TLE details & history
Last TLE update: 4 hours ago

TLE from 4 hours ago
0 THOR ABLESTAR DEB
1   120U 61015E   25300.16605152  .00000908  00000-0  36573-3 0  9996
2   120  66.7052 320.4504 0111465 177.6994 182.4641 14.29176806315021
Epoch: 2025-10-27T03:59Z
TLE epoch observation values (Epoch: 2025-10-27T03:59:06.851Z)
Latitude
-0.00002°
Longitude
-135.09995°
Altitude
876.477 km
Speed
7.373 km/s
True Right ascension
21h 21m 48s
True Declination
0° 00' 00"
Sunlit
Object was in daylight at epoch
Visualization orbit readout
Latitude
Unknown
Longitude
Unknown
Altitude
Unknown
Speed
Unknown
Apparent Right ascension
Unknown
Apparent Declination
Unknown
Sunlit
N/A
Visualization observer readout
Local Sidereal Time
03:21:18
Azimuth
Unknown
Elevation
Unknown
Doppler factor
Unknown
Orbital elements
Apogee altitude
872.79 km
Perigee altitude
712.927 km
Semi-major axis
7,170.995 km
Eccentricity
0.01115
Inclination
66.7052°
RAAN
320.4504°
Arg. of periapsis
177.6994°
True anomaly
182.40994°
Mean anomaly
182.4641°
Eccentric anomaly
182.43694°
Mean motion
3.57416 °/min
Orbital period
100.72 mins
BSTAR
0.00036573
Loading maneuver chart data...
Computing Atmospheric mass density...

Documentation

Showing up to 5 results
|